Location: Northcutt
(34.7304°N, 84.4305°W)
Time: 09:03:27
(UTC+00:00)

Transit 2A Rocket - Pass Details

Date: 05 October 2022
Orbit: 589 x 911 km, 66.7° (Epoch: 04 December)

Event Time Altitude Azimuth Distance (km) Brightness Sun altitude
Exits shadow 10:39:01 - 219° (SW) 2,202 7.0 -12.4°
Reaches altitude 10° 10:39:42 10° 220° (SW) 1,934 6.7 -12.3°
Maximum altitude 10:43:54 54° 298° (WNW) 715 4.6 -11.4°
Drops below altitude 10° 10:48:06 10° 17° (NNE) 1,923 7.3 -10.6°
Sets 10:50:24 0° 22° (NNE) 2,841 8.3 -10.1°
